カタログに戻る

SL-8 DEB

運用中LEO
NORAD 22025·DEBRIS·🇷🇺 Russia

打ち上げ Feb 12, 1991 から Plesetsk Cosmodrome

Loading…

次のパス (今後24時間)

TLE

最新Source: Space-Track

元期: Sep 13, 2026, 16:35 UTC

1 22025U 91009CJ  26256.69126725  .00000003  00000-0  15644-3 0  9995
2 22025  73.9433 347.6174 0143193 239.9931 273.6159 12.31725095596245

AllMySatでSL-8 DEBをリアルタイム追跡

Download on the App Store